Content
SEND FEEDBACK

Daily
Averages
Monthly
Summary
Australia

BRISBANE, QUEENSLAND


Home > Oceania > Australia > Queensland
Elevation: 13 feet     Latitude: 27 23S     Longitude: 153 07E

WEATHER
 
SELECT A DAY
Number of Records: 293,014;   Date Range: 7/1/96 - 8/31/14
 
SHARE

PRINT THIS DATA

[ ← Previous Day ]
WEATHER ALMANAC - JANUARY 19, 2013
[ Next Day → ]
[ °C ]   °F
Weather ElementAverageHighLow
Temperature80.6 °F87.8 °F (12:00 pm)73.4 °F (5:00 am)
Dewpoint71.2 °F75.2 °F (10:00 pm)66 °F (9:00 am)
Humidity72.3 %94 % (10:00 pm)46 % (9:00 am)
Barometer29.77 in29.86 in (9:47 pm)29.71 in (11:30 am)
Wind Speed13.2 mph23 mph (1:30 pm)
Weather ElementAverage
Visibility7.8 mi
Wind DirectionSSE (153.4 °)

Weather ElementTotal
Precipitation---
Cooling Degree Days15.6 (Base 65)
Growing Degree Days30.6 (Base 50)
Averaged from 64 records on January 19, 2013
WEATHER CONDITIONS BREAKOUT
WIND DIRECTION BREAKOUT
WEATHER BY HOUR - JANUARY 19, 2013
[ °C ]   °F
Local TimeTemperatureDewpointHumidityBarometerVisibilityWind DirectionWind SpeedGust SpeedPrecipitationEventsConditions
12:00 AM77.0 °F69.8 °F78 %29.77 in6.2 miNorth (360°)19.6 mphPartly Cloudy
12:30 AM77.0 °F69.8 °F78 %29.77 inNorth (360°)18.4 mphClear
1:00 AM77.0 °F69.0 °F70 %29.77 inNorth19.6 mph
1:00 AM77.0 °F69.8 °F78 %29.74 inNorth (360°)19.6 mphClear
1:30 AM77.0 °F69.8 °F78 %29.74 inNorth (360°)18.4 mphClear
2:00 AM77.0 °F69.8 °F78 %29.74 inNorth (350°)16.1 mphClear
2:30 AM77.0 °F69.8 °F78 %29.74 inNorth (350°)13.8 mphClear
3:00 AM77.0 °F69.8 °F78 %29.74 inNorth (350°)16.1 mphClear
3:00 AM76.0 °F69.0 °F73 %29.75 in12.0 miNorth (350°)16.1 mphSmoke
3:30 AM77.0 °F69.8 °F78 %29.74 inNorth (350°)15.0 mphClear
4:00 AM76.0 °F69.0 °F75 %29.76 inNorth (350°)11.5 mph
4:00 AM75.2 °F69.8 °F83 %29.74 inNorth (350°)11.5 mphClear
4:30 AM75.2 °F69.8 °F83 %29.77 in6.2 miNNW (340°)10.4 mphPartly Cloudy
5:00 AM73.4 °F69.8 °F88 %29.77 in6.2 miNNW (340°)9.2 mphPartly Cloudy
5:30 AM73.4 °F69.8 °F88 %29.77 in6.2 miNW (310°)6.9 mphPartly Cloudy
6:00 AM75.2 °F69.8 °F83 %29.80 in6.2 miNW (320°)6.9 mphPartly Cloudy
6:00 AM74.0 °F69.0 °F81 %29.80 in12.0 miNW (320°)6.9 mphSmoke
6:30 AM75.2 °F69.8 °F83 %29.80 inNW (320°)9.2 mphClear
7:00 AM78.0 °F69.0 °F66 %29.81 inNNW (330°)9.2 mph
7:00 AM78.8 °F68.0 °F69 %29.80 in6.2 miNNW (330°)9.2 mphPartly Cloudy
7:30 AM80.6 °F68.0 °F65 %29.80 in6.2 miNNW (340°)8.1 mphPartly Cloudy
8:00 AM80.6 °F68.0 °F65 %29.80 in6.2 miNW (310°)5.8 mphScattered Clouds
8:30 AM82.4 °F68.0 °F62 %29.80 in6.2 miWNW (290°)5.8 mphMostly Cloudy
9:00 AM84.2 °F66.2 °F55 %29.77 inNNW (330°)8.1 mphClear
9:00 AM84.0 °F66.0 °F46 %29.80 in16.0 miNNW (330°)8.1 mphPartly Cloudy
9:30 AM84.2 °F69.8 °F62 %29.77 inNorth (360°)11.5 mphClear
10:00 AM84.0 °F68.0 °F50 %29.77 inNorth (10°)15.0 mph
10:00 AM84.2 °F68.0 °F58 %29.77 inNorth (10°)15.0 mphClear
10:30 AM86.0 °F69.8 °F58 %29.74 inNNE (20°)17.3 mphClear
11:00 AM86.0 °F68.0 °F55 %29.74 inNNE (20°)16.1 mphClear
11:30 AM86.0 °F69.8 °F58 %29.71 inNNE (20°)18.4 mphClear
12:00 PM87.8 °F73.4 °F62 %29.71 inNNE (20°)19.6 mphClear
12:00 PM87.0 °F73.0 °F54 %29.73 in16.0 miNNE (20°)19.6 mphPartly Cloudy
12:30 PM86.0 °F73.4 °F66 %29.71 inNorth (10°)21.9 mphClear
1:00 PM87.0 °F72.0 °F53 %29.72 inNNE (20°)21.9 mph
1:00 PM86.0 °F71.6 °F62 %29.71 inNNE (20°)21.9 mphClear
1:30 PM86.0 °F73.4 °F66 %29.71 inNorth (10°)23.0 mphClear
2:00 PM86.0 °F73.4 °F66 %29.71 inNNE (20°)20.7 mphClear
2:30 PM84.2 °F73.4 °F70 %29.71 in6.2 miNNE (20°)21.9 mphPartly Cloudy
3:00 PM86.0 °F73.4 °F66 %29.71 in6.2 miNNE (20°)19.6 mphPartly Cloudy
3:00 PM85.0 °F73.0 °F60 %29.72 in16.0 miNNE (20°)19.6 mphPartly Cloudy
3:30 PM84.2 °F73.4 °F70 %29.71 in6.2 miNNE (20°)18.4 mphPartly Cloudy
4:00 PM84.0 °F73.0 °F62 %29.72 inNNE (20°)17.3 mph
4:00 PM84.2 °F73.4 °F70 %29.71 in6.2 miNNE (20°)17.3 mphPartly Cloudy
4:30 PM84.2 °F73.4 °F70 %29.71 in6.2 miNNE (30°)17.3 mphPartly Cloudy
5:00 PM82.4 °F73.4 °F74 %29.74 in6.2 miNNE (30°)16.1 mphMostly Cloudy
5:30 PM82.4 °F73.4 °F74 %29.74 in6.2 miNNE (20°)13.8 mphMostly Cloudy
6:00 PM80.6 °F73.4 °F79 %29.77 in6.2 miNNE (20°)10.4 mphMostly Cloudy
6:00 PM81.0 °F73.0 °F71 %29.78 in19.0 miNNE (20°)10.4 mphPartly Cloudy
6:30 PM80.6 °F73.4 °F79 %29.77 in6.2 miNNE (20°)10.4 mphMostly Cloudy
7:00 PM80.0 °F73.0 °F74 %29.81 inNNE (30°)10.4 mph
7:00 PM80.6 °F73.4 °F79 %29.80 in6.2 miNNE (30°)10.4 mphMostly Cloudy
7:30 PM80.6 °F73.4 °F79 %29.80 in6.2 miNNE (20°)10.4 mphRainLight Rain Showers
8:00 PM78.8 °F73.4 °F83 %29.80 in6.2 miNE (50°)6.9 mphRainLight Rain Showers
8:30 PM80.6 °F73.4 °F79 %29.83 in6.2 miNE (40°)8.1 mphOvercast
9:00 PM80.6 °F73.4 °F79 %29.83 in6.2 miNE (50°)6.9 mphMostly Cloudy
9:00 PM80.0 °F73.0 °F74 %29.85 in12.0 miNE (50°)6.9 mphOvercast
9:30 PM77.0 °F73.4 °F89 %29.83 in6.2 miESE (110°)5.8 mphRainLight Rain Showers
9:47 PM77.0 °F73.4 °F89 %29.86 in6.2 miSE (140°)5.8 mphMostly Cloudy
10:00 PM77.0 °F74.0 °F89 %29.86 inESE (110°)9.2 mph
10:00 PM77.0 °F75.2 °F94 %29.86 in5.6 miESE (110°)9.2 mphRainLight Rain Showers
10:30 PM78.8 °F73.4 °F83 %29.86 in6.2 miNE (50°)8.1 mphMostly Cloudy
11:00 PM78.8 °F73.4 °F83 %29.86 in6.2 miNE (50°)6.9 mphMostly Cloudy
11:30 PM78.8 °F71.6 °F78 %29.86 in6.2 miENE (60°)8.1 mphMostly Cloudy
Hourly data recorded from YBBN, located miles away from Brisbane, Queensland







STORIES FROM OUR PARTNERS